Regional Weather Roundup
Issued by NWS Newport/Morehead, NC

Current Version | Previous Version | Graphics & Text | Print | Product List | Glossary Off
Versions: 1 2 3 4 5 6 7 8 9 10 11 12 13 14 15 16 17 18 19 20 21 22 23 24 25 26 27 28 29 30 31 32 33 34 35 36 37 38 39 40 41 42 43 44 45 46 47 48 49 50

000
ASUS42 KMHX 221825
RWRMHX
WEATHER ROUNDUP FOR EASTERN NORTH CAROLINA
NATIONAL WEATHER SERVICE NEWPORT/MOREHEAD CITY NC
200 PM EDT SUN OCT 22 2017

NOTE: "FAIR" INDICATES FEW OR NO CLOUDS BELOW 12,000 FEET
WITH NO SIGNIFICANT WEATHER AND/OR OBSTRUCTIONS TO VISIBILITY

NCZ015>017-031-032-045>047-102-103-221900-
NORTH COAST

CITY           SKY/WX    TMP DP  RH WIND       PRES   REMARKS
EDENTON        MOSUNNY   78  63  58 CALM      30.33F
ELIZABETH CITY SUNNY     78  61  55 E8        30.34F
KITTY HAWK     CLEAR     73  64  71 CALM      30.32F
MANTEO         SUNNY    N/A N/A N/A E8        30.33F

$$

NCZ045>047-081-094-103-104-221900-
CENTRAL COAST

CITY           SKY/WX    TMP DP  RH WIND       PRES   REMARKS
FRISCO         MOSUNNY   81  62  52 SE9       30.32F

$$

NCZ095-097-098-100-101-221900-
SOUTHERN COAST

CITY           SKY/WX    TMP DP  RH WIND       PRES   REMARKS
BEAUFORT       PTSUNNY   78  65  63 E7        30.31F
CEDAR ISLAND   NOT AVBL
JACKSONVILLE   MOSUNNY   79  66  64 E7        30.30F
PINEY ISLAND     N/A    N/A N/A N/A NE10      30.31F
WILMINGTON     SUNNY     79  64  60 E9        30.30F


$$

NCZ011>013-027>030-043-044-078>080-089-090>093-098-221900-
COASTAL PLAIN

CITY           SKY/WX    TMP DP  RH WIND       PRES   REMARKS
AHOSKIE        SUNNY     76  56  49 CALM      30.32F
CLINTON        SUNNY     78  61  56 CALM      30.30F
ELIZABETHTOWN  NOT AVBL
GOLDSBORO      PTSUNNY   82  59  45 E3        30.29F HAZE
GREENVILLE     SUNNY     79  59  50 SE3       30.32F
HAVELOCK       PTSUNNY   77  64  64 NE9       30.32F
KENANSVILLE    MOSUNNY   77  61  57 SE5       30.30F
KINSTON        MOSUNNY   81  59  47 SE3       30.32F
NEW BERN       SUNNY     78  63  59 E9        30.32F
RICHLANDS      MOSUNNY   80  64  58 E8        30.30F
ROCKY MOUNT    SUNNY     78  58  49 VRB5      30.32F
WASHINGTON     MOSUNNY   79  60  52 S3        30.32F
WHITEVILLE     SUNNY     80  61  53 E7        30.27F

$$

AMZ130-135-150-152-154-156-158-170-250-252-270-ANZ085-086-088-633-658-670-221900-
MARINE OBSERVATIONS

STATION/POSITION TIME  TEMP    WIND        PRES    WAVE   SWELL
                       AIR SEA DIR/SP/G            HT/PER HT/PER
                 (UTC) (F)     (DEG/KT/KT) (MB)    (FT/S) (FT/S)
CHESAPEAKE LIGHT NOT AVBL
64 E VA BEACH    1750   69 69   50/  6/  8 1027.9    3/ 9   2/ 9
DUCK             1800   74 70   90/  6/  8 1026.9
2 E DUCK         1800      70                N/A     2/ 9
OREGON INLET     1800   72 70   50/  7/ 10 1026.8
13E OREGON INLT  1748      73                N/A     3/ 7   2/ 7
HATTERAS CG      1800   77 72  120/  5/  8 1026.6
DIAMOND BUOY     1750   76 81   90/  6/ 10 1026.6    3/ 9   3/ 9
CAPE LOOKOUT     1800   77     150/  2/  2 1025.9
BEAUFORT LAB     1800   76 72  120/  8/ 10 1026.3
30 SE NEW RVR IN 1808   76      90/  4/  6 1025.9
30 SE NEW RVR IN NOT AVBL
27 SE WRIGHTSVLE 1808   77 76  110/  8/ 12 1025.8
5 SE WRIGHTSVLE  1808   74 74   80/ 12/ 16 1025.7
225 S CAPE HAT   1750   77 80   80/ 12/ 14 1024.9    4/ 7   3/ 7
41 SE CHARLESTON 1810   79 79   90/ 17/ 23 1022.4

$$




USA.gov is the U.S. government's official web portal to all federal, state and local government web resources and services.